• In Belarus
  • List of Countries
  • For 7 days
  • Water Temperature
  • Satellite Maps
  • Weather Map
  • Weather Widgets
  • user-avatar
    Login

    Hourly Weather Krutaya Gora

    Today, 15 November, Thursday

    Time Temperature Precipitation Wind Pressure Humidity
    00:00 -4°C° 0 mm 4 mps 750 mmHg 61%
    01:00 -4°C° 0 mm 4 mps 750 mmHg 63%
    02:00 -4°C° 0 mm 3 mps 750 mmHg 61%
    03:00 -4°C° 0 mm 3 mps 750 mmHg 62%
    04:00 -4°C° 0 mm 3 mps 750 mmHg 64%
    05:00 -5°C° 0 mm 4 mps 751 mmHg 65%
    06:00 -5°C° 0 mm 4 mps 751 mmHg 64%
    07:00 -4°C° 0 mm 4 mps 751 mmHg 64%
    08:00 -4°C° 0 mm 4 mps 752 mmHg 63%
    09:00 -4°C° 0 mm 4 mps 752 mmHg 60%
    10:00 -2°C° 0 mm 3 mps 753 mmHg 57%
    11:00 -1°C° 0 mm 3 mps 753 mmHg 54%
    12:00 -1°C° 0 mm 3 mps 753 mmHg 53%
    13:00 -1°C° 0 mm 3 mps 754 mmHg 52%
    14:00 -1°C° 0 mm 3 mps 754 mmHg 51%
    15:00 -1°C° 0 mm 3 mps 754 mmHg 52%
    16:00 -2°C° 0 mm 3 mps 755 mmHg 54%
    17:00 -4°C° 0 mm 3 mps 755 mmHg 55%
    18:00 -4°C° 0 mm 3 mps 755 mmHg 54%
    19:00 -4°C° 0 mm 3 mps 756 mmHg 52%
    20:00 -4°C° 0 mm 3 mps 756 mmHg 50%
    21:00 -3°C° 0 mm 2 mps 756 mmHg 49%
    22:00 -4°C° 0 mm 2 mps 757 mmHg 47%
    23:00 -4°C° 0 mm 2 mps 757 mmHg 46%

    Tomorrow, 16 November, Friday

    Time Temperature Precipitation Wind Pressure Humidity
    00:00 -4°C° 0 mm 2 mps 757 mmHg 44%
    01:00 -4°C° 0 mm 2 mps 758 mmHg 42%
    02:00 -4°C° 0 mm 2 mps 758 mmHg 40%
    03:00 -4°C° 0 mm 2 mps 758 mmHg 38%
    04:00 -4°C° 0 mm 2 mps 758 mmHg 37%
    05:00 -5°C° 0 mm 3 mps 758 mmHg 35%
    06:00 -5°C° 0 mm 3 mps 759 mmHg 33%
    07:00 -5°C° 0 mm 3 mps 759 mmHg 32%
    08:00 -5°C° 0 mm 3 mps 759 mmHg 31%
    09:00 -4°C° 0 mm 3 mps 759 mmHg 29%
    10:00 -4°C° 0 mm 3 mps 759 mmHg 28%
    11:00 -2°C° 0 mm 3 mps 760 mmHg 26%
    12:00 -1°C° 0 mm 3 mps 760 mmHg 26%
    13:00 -1°C° 0 mm 3 mps 760 mmHg 27%
    14:00 -1°C° 0 mm 3 mps 759 mmHg 27%
    15:00 -2°C° 0 mm 3 mps 759 mmHg 28%
    16:00 -2°C° 0 mm 3 mps 760 mmHg 30%
    17:00 -4°C° 0 mm 3 mps 760 mmHg 31%
    18:00 -4°C° 0 mm 3 mps 760 mmHg 30%
    19:00 -4°C° 0 mm 3 mps 760 mmHg 29%
    20:00 -5°C° 0 mm 3 mps 760 mmHg 28%
    21:00 -4°C° 0 mm 2 mps 760 mmHg 27%
    22:00 -4°C° 0 mm 2 mps 760 mmHg 26%
    23:00 -4°C° 0 mm 2 mps 760 mmHg 26%

    Day after tomorrow, 17 November, Saturday

    Time Temperature Precipitation Wind Pressure Humidity
    00:00 -4°C° 0 mm 2 mps 760 mmHg 25%
    01:00 -4°C° 0 mm 2 mps 759 mmHg 24%
    02:00 -4°C° 0 mm 2 mps 759 mmHg 23%
    03:00 -4°C° 0 mm 2 mps 759 mmHg 22%
    04:00 -4°C° 0 mm 2 mps 759 mmHg 22%
    05:00 -5°C° 0 mm 2 mps 759 mmHg 21%
    06:00 -2°C° 0 mm 1 mps 758 mmHg 21%
    07:00 -2°C° 0 mm 1 mps 758 mmHg 20%
    08:00 -2°C° 0 mm 1 mps 758 mmHg 20%
    09:00 -1°C° 0 mm 1 mps 758 mmHg 18%
    10:00 0°C° 0 mm 1 mps 758 mmHg 17%
    11:00 +1°C° 0 mm 1 mps 757 mmHg 15%
    12:00 +1°C° 0 mm 1 mps 757 mmHg 16%
    13:00 +1°C° 0 mm 1 mps 756 mmHg 18%
    14:00 +2°C° 0 mm 1 mps 755 mmHg 19%
    15:00 +1°C° 0 mm 1 mps 755 mmHg 19%
    16:00 0°C° 0 mm 1 mps 754 mmHg 20%
    17:00 -1°C° 0 mm 1 mps 754 mmHg 20%
    18:00 -1°C° 0 mm 1 mps 753 mmHg 20%
    19:00 -3°C° 0 mm 2 mps 753 mmHg 21%
    20:00 -3°C° 0 mm 2 mps 752 mmHg 21%
    21:00 -3°C° 0 mm 2 mps 751 mmHg 22%
    22:00 -3°C° 0 mm 2 mps 751 mmHg 23%
    23:00 -4°C° 0 mm 3 mps 750 mmHg 24%

    18 November, Sunday

    Time Temperature Precipitation Wind Pressure Humidity
    00:00 -4°C° 0 mm 3 mps 749 mmHg 27%
    01:00 -4°C° 0 mm 3 mps 749 mmHg 31%
    02:00 -4°C° 0 mm 3 mps 748 mmHg 34%
    03:00 -4°C° 0.1 mm 3 mps 747 mmHg 42%
    04:00 -5°C° 0.1 mm 3 mps 746 mmHg 51%
    05:00 -5°C° 0.1 mm 4 mps 746 mmHg 59%
    06:00 -5°C° 0.1 mm 3 mps 745 mmHg 65%
    07:00 -5°C° 0.1 mm 3 mps 745 mmHg 71%
    08:00 -5°C° 0.1 mm 3 mps 744 mmHg 77%
    09:00 -4°C° 0.2 mm 3 mps 744 mmHg 78%
    10:00 -4°C° 0.2 mm 3 mps 744 mmHg 80%
    11:00 -4°C° 0.2 mm 3 mps 744 mmHg 81%
    12:00 -4°C° 0.1 mm 3 mps 744 mmHg 81%
    13:00 -2°C° 0.1 mm 2 mps 744 mmHg 81%
    14:00 -2°C° 0.1 mm 2 mps 743 mmHg 80%
    15:00 -2°C° 0.1 mm 2 mps 743 mmHg 81%
    16:00 -3°C° 0.1 mm 2 mps 744 mmHg 81%
    17:00 -3°C° 0.1 mm 2 mps 744 mmHg 82%
    18:00 -3°C° 0.1 mm 2 mps 744 mmHg 81%
    19:00 -3°C° 0.1 mm 2 mps 744 mmHg 80%
    20:00 -3°C° 0.1 mm 2 mps 744 mmHg 80%
    21:00 -3°C° 0.1 mm 2 mps 744 mmHg 77%
    22:00 -3°C° 0.1 mm 2 mps 745 mmHg 74%
    23:00 -3°C° 0.1 mm 2 mps 745 mmHg 71%

    19 November, Monday

    Time Temperature Precipitation Wind Pressure Humidity
    00:00 -3°C° 0 mm 2 mps 745 mmHg 67%
    01:00 -3°C° 0 mm 2 mps 746 mmHg 63%
    02:00 -3°C° 0 mm 2 mps 746 mmHg 59%
    03:00 -4°C° 0 mm 2 mps 746 mmHg 57%
    04:00 -4°C° 0 mm 2 mps 746 mmHg 54%
    05:00 -4°C° 0 mm 2 mps 747 mmHg 51%
    06:00 -5°C° 0 mm 2 mps 747 mmHg 51%
    07:00 -5°C° 0 mm 2 mps 748 mmHg 51%
    08:00 -6°C° 0 mm 3 mps 748 mmHg 51%
    09:00 -5°C° 0 mm 3 mps 749 mmHg 50%
    10:00 -4°C° 0 mm 3 mps 749 mmHg 48%
    11:00 -2°C° 0 mm 3 mps 750 mmHg 47%
    12:00 -2°C° 0 mm 3 mps 750 mmHg 50%
    13:00 -2°C° 0 mm 3 mps 750 mmHg 52%
    14:00 -2°C° 0 mm 2 mps 751 mmHg 54%
    15:00 -4°C° 0 mm 3 mps 751 mmHg 57%
    16:00 -5°C° 0 mm 3 mps 751 mmHg 59%
    17:00 -5°C° 0 mm 3 mps 751 mmHg 61%
    18:00 -5°C° 0 mm 3 mps 751 mmHg 62%
    19:00 -6°C° 0 mm 3 mps 752 mmHg 63%
    20:00 -6°C° 0 mm 3 mps 752 mmHg 63%
    21:00 -6°C° 0 mm 3 mps 752 mmHg 64%
    22:00 -6°C° 0 mm 3 mps 752 mmHg 64%
    23:00 -6°C° 0 mm 3 mps 752 mmHg 64%

    20 November, Tuesday

    Time Temperature Precipitation Wind Pressure Humidity
    00:00 -5°C° 0 mm 2 mps 752 mmHg 65%
    01:00 -5°C° 0 mm 2 mps 752 mmHg 65%
    02:00 -6°C° 0 mm 2 mps 753 mmHg 65%
    03:00 -6°C° 0 mm 2 mps 752 mmHg 65%
    04:00 -6°C° 0 mm 2 mps 752 mmHg 65%
    05:00 -6°C° 0 mm 2 mps 752 mmHg 65%
    06:00 -6°C° 0 mm 2 mps 752 mmHg 64%
    07:00 -6°C° 0 mm 2 mps 752 mmHg 63%
    08:00 -7°C° 0 mm 3 mps 752 mmHg 62%
    09:00 -6°C° 0 mm 3 mps 752 mmHg 58%
    10:00 -5°C° 0 mm 3 mps 752 mmHg 54%
    11:00 -4°C° 0 mm 3 mps 752 mmHg 50%
    12:00 -4°C° 0 mm 3 mps 752 mmHg 51%
    13:00 -3°C° 0 mm 2 mps 752 mmHg 52%
    14:00 -3°C° 0 mm 2 mps 752 mmHg 53%
    15:00 -3°C° 0 mm 2 mps 751 mmHg 55%
    16:00 -4°C° 0 mm 2 mps 751 mmHg 56%
    17:00 -4°C° 0 mm 2 mps 751 mmHg 58%
    18:00 -5°C° 0 mm 2 mps 751 mmHg 58%
    19:00 -5°C° 0 mm 2 mps 751 mmHg 58%
    20:00 -5°C° 0 mm 2 mps 751 mmHg 58%
    21:00 -5°C° 0 mm 2 mps 751 mmHg 58%
    22:00 -5°C° 0 mm 2 mps 751 mmHg 57%
    23:00 -5°C° 0 mm 2 mps 751 mmHg 57%
    Show more